TimeEDT,TemperatureF,Dew PointF,Humidity,Sea Level PressureIn,VisibilityMPH,Wind Direction,Wind SpeedMPH,Gust SpeedMPH,PrecipitationIn,Events,Conditions,WindDirDegrees,DateUTC
12:54 AM,75.9,68.0,76,29.85,10.0,West,6.9,-,N/A,,Clear,270,2013-06-26 04:54:00
1:54 AM,73.9,64.9,73,29.85,10.0,West,9.2,-,0.00,,Clear,260,2013-06-26 05:54:00
2:54 AM,73.0,64.9,76,29.85,10.0,West,4.6,-,N/A,,Clear,260,2013-06-26 06:54:00
3:54 AM,71.1,64.0,78,29.86,10.0,West,4.6,-,N/A,,Clear,260,2013-06-26 07:54:00
4:54 AM,70.0,64.0,81,29.86,10.0,Calm,Calm,-,N/A,,Clear,0,2013-06-26 08:54:00
5:54 AM,68.0,64.0,87,29.87,10.0,SW,3.5,-,N/A,,Clear,230,2013-06-26 09:54:00
6:54 AM,71.1,64.9,81,29.88,10.0,SW,3.5,-,N/A,,Clear,230,2013-06-26 10:54:00
7:54 AM,73.9,64.9,73,29.88,10.0,SW,3.5,-,N/A,,Clear,230,2013-06-26 11:54:00
8:54 AM,77.0,64.0,64,29.89,10.0,WSW,4.6,-,N/A,,Clear,240,2013-06-26 12:54:00
9:54 AM,80.1,64.0,58,29.88,10.0,West,3.5,-,N/A,,Clear,260,2013-06-26 13:54:00
10:54 AM,82.9,64.0,53,29.88,10.0,Variable,6.9,-,N/A,,Clear,0,2013-06-26 14:54:00
11:54 AM,84.9,64.9,51,29.87,10.0,SW,5.8,-,N/A,,Clear,230,2013-06-26 15:54:00
12:54 PM,87.1,64.9,48,29.87,10.0,SW,4.6,-,N/A,,Clear,230,2013-06-26 16:54:00
1:54 PM,88.0,64.0,45,29.86,10.0,WSW,5.8,-,N/A,,Clear,250,2013-06-26 17:54:00
2:54 PM,89.1,66.0,46,29.84,10.0,Variable,6.9,-,N/A,,Clear,0,2013-06-26 18:54:00
3:54 PM,88.0,68.0,51,29.82,10.0,Variable,4.6,-,N/A,,Clear,0,2013-06-26 19:54:00
4:54 PM,88.0,69.1,53,29.80,10.0,Variable,5.8,-,N/A,,Partly Cloudy,0,2013-06-26 20:54:00
5:54 PM,87.1,70.0,57,29.79,10.0,SW,4.6,-,N/A,,Clear,230,2013-06-26 21:54:00
6:54 PM,82.9,69.1,63,29.79,10.0,Calm,Calm,-,N/A,,Clear,0,2013-06-26 22:54:00
7:54 PM,80.1,72.0,76,29.81,10.0,Calm,Calm,-,N/A,,Clear,0,2013-06-26 23:54:00
8:54 PM,78.1,70.0,76,29.81,10.0,NNE,5.8,-,0.00,Rain,Light Rain,20,2013-06-27 00:54:00
9:25 PM,73.4,69.8,88,29.85,2.0,Variable,5.8,17.3,0.12,Rain,Rain,0,2013-06-27 01:25:00
9:27 PM,73.4,71.6,94,29.85,1.2,NW,9.2,17.3,0.18,Rain,Heavy Rain,310,2013-06-27 01:27:00
9:34 PM,73.4,69.8,88,29.84,1.0,NNW,10.4,16.1,0.31,Rain,Heavy Rain,340,2013-06-27 01:34:00
9:38 PM,71.6,69.8,94,29.85,1.2,North,8.1,-,0.37,Rain,Heavy Rain,360,2013-06-27 01:38:00
9:54 PM,72.0,69.1,91,29.83,1.5,NNE,5.8,-,0.61,Rain,Heavy Rain,20,2013-06-27 01:54:00
9:59 PM,71.6,69.8,94,29.83,3.0,East,3.5,-,0.00,Rain,Light Rain,80,2013-06-27 01:59:00
10:54 PM,72.0,70.0,93,29.86,9.0,Variable,6.9,-,0.01,,Overcast,0,2013-06-27 02:54:00
11:54 PM,73.0,71.1,93,29.83,8.0,Calm,Calm,-,0.03,,Mostly Cloudy,0,2013-06-27 03:54:00